AQI (51)

Current Conditions for Foresthill, CA. Sunny, Dry   
Visibility: 10 miles
Space WX Alerts: ALERT:  Geomagnetic K-index of 5 ( Latest Alert ) - Issue Time: 2018 Jun 18 0256 UTC

  Summary / Temperature 

Current Temperature
83.6°F
28.7°C
(24/hr Ago)
81.2°F
(Apparent temp)
81.9°F
Warm
Heat Index
81.3°F 

83.8°F/ 28.8°C
Little or no discomfort

 Temp Rate:

 24/hr Difference:

 Avg Running Temp:

 Todays High:

 Todays Low:

 Y-days High:

 Y-days Low:

 Todays HeatIdx:

 Y-days HeatIdx:

 Evapotranspiration:

+1.8°F/hr 

+2.4°F

83.7°F

86.3°F 1:46pm

62.3°F 6:09am

82.5°F 3:03pm

63.7°F 5:39am

83.7°F 1:55pm

81.4°F 12:56pm

0.141 in

115' Above Ground

 Temperature:

 6'AGL VRS 115'AGL:

 Avg Running Temp:

 Humidity:

 Todays High:

 Todays Low:

 Y-days High:

 Y-days Low:

83.0°F 

+0.4°F

82.7°F

29% 

84.0°F 1:55pm

65.0°F 4:44am

82.0°F 4:22pm

68.0°F 11:24pm

Temp & Humidity Graphs

  Wind 

Wind Speed

 Calm

Gusting to

 8.0 mph

Wind from SSE

155°  SSE

Calm

 Avg speed:

 Wind Run:

 Peak Gust:

  1.0 mph 

29.0 miles

  15.0 mph 5:00am

  Almanac  

Moon age: 8 days,20 hours,12 minutes,65%

Waxing Gibbous
65%
Illuminated
8 days in cycle

 Moonrise:

 Moonset:

 Sunrise:

 Sunset:

 Solar Noon:

2:26pm

1:52am

5:37am

8:32pm

1:05pm

0min 2s more daylight tomorrow 

  Solar Radiation 

(Current Solar)
  896 W/m2 (85%)
(Todays High)
 969 W/m2@1:16pm
Feels like: 98.1°F in the sun

Rain

 Rain Today:

 Rain Rate (/hr):

 Rain last hour:

 Rain Yesterday:

 This Month:

 Season Total:

26 Days Since Last Rain Day

0.00 in

0.000 in

0.00 in

0.00 in

0.00 in

42.44 in

Updated Time

Updated: 6/21/18  2:33pm

(Updated  sec ago)

Humidity & Barometer

 Humidity:

 Wetbulb:

 Dew Point:

 Barometer:

26% 

64.0°F 

45.1°F 

29.963 inHg 

 Baro Trend:  Steady 
Northern Calif
Preparedness
Fire 
Level 

    UV Index  

(Current UV)
7.8  High
(Todays High) @ 1:16pm
9.1   Very High

National Weather Service Forecast

This
Afternoon
This Afternoon: Sunny
Sunny
Tonight

Tonight: Clear
Clear
Friday

Friday: Sunny
Sunny
Friday
Night
Friday Night: Clear
Clear
Saturday

Saturday: Sunny
Sunny
Saturday
Night
Saturday Night: Clear
Clear
Hi 88 °F Lo 62 °F Hi 92 °F Lo 67 °F Hi 94 °F Lo 69 °F

Foresthill Probe 2 Stats  
Foresthill Probe 2: is located on Thomas Street
at 3000 feet. The main Foresthill Weather site
is located on Melody ln at the 2860 foot elevation

Light Air
87.4°F
30.8°C
Temp Rate:
+1.2°F
Calm
Gusting to
4.0 mph
(Humidity)
24%
Wind from WSW
253°  WSW
Updated: 21/06/18 - 14:28:34
 Todays High: 88.8°F 14:12
 Todays Low: 59.7°F 06:51
 Rain Today: 0.00 in
 Season Total: 44.79 in

Foresthill Wx: Monthly,Yearly, Highs and Lows 

Foresthill  
This Weather Data is coming from the main Foresthill
Weather site located on Melody ln at the 2860 foot
elevation
Not Foresthill Probe 2
Weather Data
Month
  High
Month
  Low
Year
High
Year
Low
Temp 87.4°F
6/13/18
46.3°F
6/1/18
87.4°F
6/13/18
21.9°F
2/23/18
Humidity 86%
6/17/18
22%
6/10/18
100%
1/8/18
15%
2/10/18
Heat Index 84.7°F
6/13/18
48.2°F
6/1/18
84.7°F
6/13/18
27.1°F
2/20/18
Wind Chill 87.4°F
6/13/18
44.3°F
6/10/18
87.4°F
6/13/18
9.2°F
2/23/18
Wind Gust 22 mph
6/15/18
0 mph
6/1/18
43 mph
3/1/18
0 mph
1/1/18
Barometer 30.11 in
6/1/18
29.60 in
6/16/18
30.55 in
1/27/18
29.60 in
6/16/18
ET 0.24 in
6/13/18
0.00 in
6/1/18
0.24 in
6/13/18
0.00 in
1/1/18
Dew Point 58.6°F
6/20/18
27.9°F
6/10/18
58.6°F
6/20/18
7.6°F
2/11/18
Pacific Satellite US Radar Satellite Imagery Sacramento,CA.  (click to enlarge)
NWS Weather Forecast - Summary
Updated: Thursday, June 21, 2018 - 1:22:4pm PDT
Red Flag Warning for the Valley and surrounding Foothills this Weekend
Current Interstate Highway Conditions for I-80 & US-50

[I 80: IN THE SAN FRANCISCO BAY AREA - SOLANO CO]
no traffic restrictions are reported for this area.

[I 80: IN THE NORTHERN CALIFORNIA AREA & SIERRA NEVADA]
no traffic restrictions are reported for this area.

[US 50: IN THE SACRAMENTO VALLEY & THE LAKE TAHOE BASIN]
the eastbound connector to northbound & southbound i 5 /in sacramento/ (sacramento co)   Is closed from 9:00pm each night to 5:00am each morning monday thru saturday thru 6/23/18 - due to permit work - a detour is available
  1-way controlled traffic at various locations from 5. 8 mi east of riverton to 2. 5 mi west of kyburz (EL DORADO CO) from 7:00am to 3:30pm on 6/21/18 - due to maintenance
NWS Weather Forecast: This Afternoon and Tonight (Updated: Thu, 21-Jun-2018 1:53pm PDT)
This
Afternoon
This Afternoon: Sunny
Sunny

Hi 88 °F
NWS forecast: Sunny, with a high near 88. West southwest wind around 7 mph.
Tonight

Tonight: Clear
Clear

Lo 62 °F
NWS forecast: Clear, with a low around 62. North wind 2 to 7 mph.
YR.NO 10 Day Weather forecast
Last update: 06/21/2018 @ 00:34
Next update: 06/21/2018 @ 13:00
Provided by: 22
      Temperature Precipitation Pressure Wind  
Today
06/21/2018
13:00 18:00 88°F   29.94 inHg Light breeze from west-southwest 6 mph
  18:00 00:00 84°F   29.90 inHg Light breeze from west-southwest 6 mph
    (Click to enlarge)
meteogram

    Forecast for next 9 days

      Temperature Precip Pressure Wind  
Friday
06/22/2018
00:00 06:00 57°F   29.92 inHg Light breeze from east-northeast 5 mph
  06:00 12:00 54°F   29.90 inHg Light breeze from east-northeast 7 mph
  12:00 18:00 91°F   29.87 inHg Light breeze from west 7 mph
  18:00 00:00 91°F   29.76 inHg Light breeze from west-northwest 7 mph
      Temperature Precip Pressure Wind  
Saturday
06/23/2018
00:00 06:00 66°F   29.78 inHg Light breeze from east-northeast 5 mph
  06:00 12:00 61°F   29.73 inHg Light breeze from east-northeast 7 mph
  12:00 18:00 93°F   29.70 inHg Gentle breeze from west 8 mph
  17:00 23:00 95°F   29.65 inHg Gentle breeze from west-northwest 9 mph
  23:00 05:00 70°F   29.69 inHg Gentle breeze from east-northeast 8 mph
      Temperature Precip Pressure Wind  
Sunday
06/24/2018
05:00 11:00 75°F   29.71 inHg Moderate breeze from east-northeast 13 mph
  11:00 17:00 93°F   29.75 inHg Gentle breeze from southwest 8 mph
  17:00 23:00 91°F   29.77 inHg Gentle breeze from southwest 8 mph
  23:00 05:00 68°F   29.83 inHg Light breeze from east-southeast 4 mph
      Temperature Precip Pressure Wind  
Monday
06/25/2018
05:00 11:00 59°F   29.85 inHg Light breeze from east-southeast 4 mph
  11:00 17:00 81°F   29.91 inHg Light breeze from south-southwest 7 mph
  17:00 23:00 84°F   29.86 inHg Light breeze from southwest 7 mph
  23:00 05:00 64°F   29.88 inHg Light breeze from east 5 mph
      Temperature Precip Pressure Wind  
Tuesday
06/26/2018
05:00 11:00 57°F   29.87 inHg Light breeze from east 4 mph
  11:00 17:00 82°F   29.89 inHg Light breeze from southwest 7 mph
  17:00 23:00 86°F   29.86 inHg Gentle breeze from south-southwest 8 mph
  23:00 05:00 66°F   29.89 inHg Light air from east 3 mph
      Temperature Precip Pressure Wind  
Wednesday
06/27/2018
05:00 11:00 54°F   29.88 inHg Light air from east-northeast 2 mph
  11:00 17:00 81°F   29.90 inHg Light breeze from southwest 6 mph
  17:00 23:00 82°F   29.87 inHg Light breeze from southwest 7 mph
  23:00 05:00 63°F   29.91 inHg Light air from east-southeast 2 mph
      Temperature Precip Pressure Wind  
Thursday
06/28/2018
05:00 11:00 52°F   29.87 inHg Light air from east 2 mph
  11:00 17:00 75°F   29.89 inHg Light breeze from southwest 6 mph
  17:00 23:00 79°F   29.83 inHg Light breeze from southwest 7 mph
  23:00 05:00 63°F   29.83 inHg Light air from south-southeast 2 mph
      Temperature Precip Pressure Wind  
Friday
06/29/2018
05:00 11:00 52°F   29.78 inHg Light air from east-northeast 3 mph
  11:00 17:00 73°F   29.81 inHg Light breeze from west-southwest 6 mph
  17:00 23:00 75°F   29.73 inHg Light breeze from southwest 6 mph
  23:00 05:00 61°F   29.73 inHg Light air from southeast 2 mph
      Temperature Precip Pressure Wind  
Saturday
06/30/2018
05:00 11:00 52°F   29.72 inHg Light air from east-northeast 2 mph
  11:00 17:00 72°F   29.78 inHg Light breeze from west-southwest 6 mph
How Close Are We To this Month's Temperature Record ?
Updated Thursday, Jun 21, 2018- 2:25:00 PM

Current Temperature: 83.6°F

June's High: Temperature Record 95.1°F - Set on Sat, Jun 8, 2013 - 3:58:00 PM
We are currently 11.5°F Less than this Month's record High

June's Low: Temperature Record 40.8°F - Set on Tue, Jun 5, 2012 - 5:41:00 AM
We are currently 42.8°F More than this Month's record Low

Weather History For Thursday, June 21, 2018


On this Day - In Weather History ...
Data courtesy of weatherforyou.com
powered by Cumulus v1.9.3 (1059)
Ambient Weather VWS v14.00
Top Contact Website Map Copyright © 2007 - 2018 Foresthillweather.com Never base important decisions on this or any weather information obtained from the Internet